COSMOS 1275 DEB, 39951

Orbit data source: Space-Track

COSMOS 1275 DEB, 39951 is space debris in LEO originally from a launch on Thu, 04 Jun 1981 UTC launched from the Plesetsk Missile And Space Complex (PKMTR). Debris objects in space refer to the collection of defunct objects orbiting the Earth. Examples of debris include non-operational satellites, rocket bodies, and fragments generated from explosions, collisions, or faulty payload assembly.

Loading next visibility...
Identifier
39951, 1981-053NM
Orbit
LEO
Country
Flag of CISCIS
Related business
Manufacturer
Unknown
Mission
Spacecraft
Bus & Motor
Unknown
Mass
Unknown
Launch date (UTC)
1981-06-04 (45 years ago)
Launch vehicle
Unknown
Launch site
Plesetsk Missile And Space Complex (PKMTR)
Object type
Payload
Rocket body
Debris
Shape & HBR
Unknown shape, 0.1 m
Radar Cross Section
Small (<0.1 m²)

Expand to show TLE details & history
Last TLE update: 2 days ago

TLE from 2 days ago
0 COSMOS 1275 DEB
1 39951U 81053NM  26262.03427822  .00002063  00000-0  93652-3 0  9999
2 39951  82.8207 120.1591 0055570 273.2030  86.2794 14.20656990630483
Epoch: 2026-09-19T00:49Z
TLE epoch observation values (Epoch: 2026-09-19T00:49:21.638Z)
Latitude
-0.00004°
Longitude
109.87033°
Altitude
823.716 km
Speed
7.442 km/s
True Right ascension
08h 00m 38s
True Declination
0° 00' 00"
Sunlit
Object was in daylight at epoch
Visualization orbit readout
Latitude
Unknown
Longitude
Unknown
Altitude
Unknown
Speed
Unknown
Apparent Right ascension
Unknown
Apparent Declination
Unknown
Sunlit
N/A
Visualization observer readout
Local Sidereal Time
13:03:01
Azimuth
Unknown
Elevation
Unknown
Doppler factor
Unknown
Orbital elements
Apogee altitude
860.224 km
Perigee altitude
780.221 km
Semi-major axis
7,198.359 km
Eccentricity
0.00556
Inclination
82.8207°
RAAN
120.1591°
Arg. of periapsis
273.203°
True anomaly
86.91512°
Mean anomaly
86.2794°
Eccentric anomaly
86.59723°
Mean motion
3.5538 °/min
Orbital period
101.3 mins
BSTAR
0.00093652
Loading maneuver chart data...
Computing Atmospheric mass density...

Documentation

Showing up to 5 results
|